{"data":{"norad_id":67155,"intl_designator":"2025-301Y","name":"KUIPER-00250","alt_names":[],"object_type":"PAYLOAD","status":"ACTIVE","operator":null,"country":"US","launch_date":"2025-12-16","launch_site_code":"AFETR","launch_vehicle":null,"mission":null,"orbit_class":"UNKNOWN","rcs_meters":null,"size_class":null,"mass_kg":null,"dimensions":null,"purposes":[],"wikipedia_slug":null,"has_3d_model":false,"image_url":null,"decayed_at":null,"tle_current":{"epoch":"2026-05-25T03:08:57.494400Z","epoch_age_seconds":63778,"freshness":"FRESH","line1":"1 67155U 25301Y   26145.13122100  .00002953  00000+0  41571-3 0  9992","line2":"2 67155  51.8994  92.5763 0001082  71.2684 288.8396 14.79981038 25015","mean_motion":14.79981038,"eccentricity":0.0001082,"inclination_deg":51.8994,"raan_deg":92.5763,"arg_perigee_deg":71.2684,"mean_anomaly_deg":288.8396,"bstar":0.00041571,"rev_number":2501,"period_min":97.29854390202,"perigee_km":628.6257754436,"apogee_km":630.14220298567,"semimajor_km":7007.5209892146,"source":"CELESTRAK","updated_at":"2026-05-25T13:38:06.779064Z"}}}